Regional Weather Roundup
Issued by NWS

Home | Current Version | Previous Version | Graphics & Text | Print | Product List | Glossary On
Versions: 1 2 3 4 5 6 7 8 9 10 11 12 13 14 15 16 17 18 19 20 21 22 23 24 25 26 27 28 29 30 31 32 33 34 35 36 37 38 39 40 41 42 43 44 45 46 47 48 49 50
016
ASUS43 KLMK 290402
RWRKY
KENTUCKY REGIONAL WEATHER ROUNDUP
NATIONAL WEATHER SERVICE LOUISVILLE KY
1200 AM EDT SAT APR 29 2017

NOTE "FAIR" INDICATES FEW OR NO CLOUDS BELOW 12,000 FEET
WITH NO SIGNIFICANT WEATHER AND/OR OBSTRUCTIONS TO VISIBILITY.

KYZ001>023-026-027-061>063-070>075-290500-
WESTERN AND SOUTH CENTRAL KENTUCKY

CITY           SKY/WX    TMP DP  RH WIND       PRES   REMARKS
PADUCAH        CLOUDY    76  69  79 S7        29.78F
HENDERSON      CLOUDY    71  68  90 NE3       29.80F
OWENSBORO      CLOUDY    75  69  81 S8        29.81F
HOPKINSVILLE   CLEAR     78  68  73 S17G31    29.82F
BOWLING GREEN  CLOUDY    78  68  71 S15G22    29.86F
GLASGOW        NOT AVBL
$$

KYZ024-025-028>034-038-045-046-053-290500-
NORTH CENTRAL KENTUCKY

CITY           SKY/WX    TMP DP  RH WIND       PRES   REMARKS
LOUISVILLE/SDF TSTM      76  67  73 NW17      29.86R
LOUISVILLE/LOU CLOUDY    76  68  76 W15G29    29.89R THUNDER
FORT KNOX      CLOUDY    74  66  76 S12       29.85F
$$

KYZ035>037-039>044-047>052-055>060-089>105-290500-
NORTHEAST KENTUCKY

CITY           SKY/WX    TMP DP  RH WIND       PRES   REMARKS
LEXINGTON      CLOUDY    73  63  70 S8        29.91F
COVINGTON      LGT RAIN  63  62  97 E16       29.86F
FRANKFORT      CLOUDY    73  62  68 SE6       29.87F
$$

KYZ054-064>069-076>088-106>120-290500-
SOUTHEAST KENTUCKY

CITY           SKY/WX    TMP DP  RH WIND       PRES   REMARKS
JACKSON        PTCLDY    74  62  66 VRB3      29.99R
LONDON         CLEAR     76  61  59 S8        29.99R
SOMERSET       NOT AVBL
MIDDLESBORO    PTCLDY    66  65  96 CALM      30.03F
MONTICELLO     CLOUDY    75  65  70 VRB7      29.97S
$$





USA.gov is the U.S. government's official web portal to all federal, state and local government web resources and services.